timestamp,surface_pressure_avg,surface_temp_avg,battery_voltage,lat,long
2021-09-21 00:09:01+00:00,381.06800000000004,6.74,12.73,47.84626,-54.09684
2021-09-21 00:19:01+00:00,375.9163,6.2,12.73,47.84626,-54.09684
2021-09-21 00:29:01+00:00,370.8463,6.0,12.73,47.84626,-54.09684
2021-09-21 00:39:01+00:00,367.0913,6.0,12.73,47.84626,-54.09684
2021-09-21 00:49:01+00:00,363.5013,6.0,12.73,47.84626,-54.09684
2021-09-21 00:59:01+00:00,358.533,6.1,12.73,47.84626,-54.09684
2021-09-21 01:09:01+00:00,354.2296,6.0,12.73,47.84626,-54.09684
2021-09-21 01:19:01+00:00,348.2296,6.14,12.73,47.84626,-54.09684
2021-09-21 01:29:01+00:00,340.6746,6.27,12.73,47.84626,-54.09684
2021-09-21 01:39:01+00:00,334.3531,6.34,12.73,47.84626,-54.09684
2021-09-21 01:49:01+00:00,327.7696,6.28,12.73,47.84626,-54.09684
2021-09-21 01:59:01+00:00,316.7596,6.38,12.73,47.84626,-54.09684
2021-09-21 02:09:01+00:00,307.9146,6.54,12.73,47.84626,-54.09684
2021-09-21 02:19:00+00:00,305.5864,6.54,12.73,47.84626,-54.09684
2021-09-21 02:29:00+00:00,297.3763,6.89,12.73,47.84626,-54.09684
2021-09-21 02:39:00+00:00,285.3381,7.43,12.73,47.84626,-54.09684
2021-09-21 02:49:00+00:00,278.363,7.5,12.73,47.84626,-54.09684
2021-09-21 02:59:00+00:00,271.5498,8.19,12.73,47.84626,-54.09684
2021-09-21 03:09:00+00:00,258.7031,8.94,12.73,47.84626,-54.09684
2021-09-21 03:19:01+00:00,246.3648,9.41,12.65,47.84626,-54.09684
2021-09-21 03:29:01+00:00,239.6314,9.71,12.65,47.84626,-54.09684
2021-09-21 03:39:01+00:00,228.6581,9.94,12.65,47.84626,-54.09684
2021-09-21 03:49:01+00:00,214.4198,10.1,12.65,47.84626,-54.09684
2021-09-21 03:59:01+00:00,205.5015,10.23,12.65,47.84626,-54.09684
2021-09-21 04:09:01+00:00,200.4231,10.29,12.65,47.84626,-54.09684
2021-09-21 04:19:00+00:00,191.5781,10.1,12.73,47.84626,-54.09684
2021-09-21 04:29:00+00:00,183.2265,9.9,12.73,47.84626,-54.09684
2021-09-21 04:39:00+00:00,181.6497,9.7,12.73,47.84626,-54.09684
2021-09-21 04:49:00+00:00,177.8098,9.5,12.73,47.84626,-54.09684
2021-09-21 04:59:00+00:00,167.8415,9.4,12.73,47.84626,-54.09684
2021-09-21 05:09:00+00:00,164.4866,9.7,12.73,47.84626,-54.09684
2021-09-21 05:19:00+00:00,167.2015,10.29,12.73,47.84626,-54.09684
2021-09-21 05:29:00+00:00,164.2548,10.74,12.73,47.84626,-54.09684
2021-09-21 05:39:00+00:00,161.3365,10.99,12.73,47.84626,-54.09684
2021-09-21 05:49:00+00:00,164.9748,11.13,12.73,47.84626,-54.09684
2021-09-21 05:59:00+00:00,166.4131,11.28,12.73,47.84626,-54.09684
2021-09-21 06:09:00+00:00,164.1515,11.48,12.73,47.84626,-54.09684
2021-09-21 06:19:01+00:00,167.9648,11.6,12.65,47.84626,-54.09684
2021-09-21 06:29:01+00:00,175.2498,11.7,12.65,47.84626,-54.09684
2021-09-21 06:39:01+00:00,177.0715,11.7,12.65,47.84626,-54.09684
2021-09-21 06:49:01+00:00,179.6115,11.7,12.65,47.84626,-54.09684
2021-09-21 06:59:01+00:00,187.1014,11.7,12.65,47.84626,-54.09684
2021-09-21 07:09:01+00:00,192.2681,11.7,12.65,47.84626,-54.09684
2021-09-21 07:19:01+00:00,192.6815,11.7,12.65,47.84626,-54.09684
2021-09-21 07:29:01+00:00,196.4064,11.7,12.65,47.84626,-54.09684
2021-09-21 07:39:01+00:00,204.0865,11.7,12.65,47.84626,-54.09684
2021-09-21 07:49:01+00:00,206.5382,11.7,12.65,47.84626,-54.09684
2021-09-21 07:59:01+00:00,205.2765,11.69,12.65,47.84626,-54.09684
2021-09-21 08:09:01+00:00,209.8398,11.69,12.65,47.84626,-54.09684
2021-09-21 08:19:01+00:00,216.8814,11.72,12.65,47.84626,-54.09684
2021-09-21 08:29:01+00:00,221.1714,11.92,12.65,47.84626,-54.09684
2021-09-21 08:39:01+00:00,227.4281,12.08,12.65,47.84626,-54.09684
2021-09-21 08:49:01+00:00,234.5764,12.22,12.65,47.84626,-54.09684
2021-09-21 08:59:01+00:00,241.1114,12.43,12.65,47.84626,-54.09684
2021-09-21 09:09:01+00:00,245.493,12.68,12.65,47.84626,-54.09684
2021-09-21 09:19:01+00:00,247.5714,12.91,12.65,47.84626,-54.09684
2021-09-21 09:29:01+00:00,253.9597,13.04,12.65,47.84626,-54.09684
2021-09-21 09:39:01+00:00,262.0165,13.16,12.65,47.84626,-54.09684
2021-09-21 09:49:01+00:00,266.1062,13.2,12.65,47.84626,-54.09684
2021-09-21 09:59:01+00:00,269.1014,13.3,12.65,47.84626,-54.09684
2021-09-21 10:09:01+00:00,278.7481,13.35,12.65,47.84626,-54.09684
2021-09-21 10:19:01+00:00,288.7247,13.4,13.21,47.84626,-54.09684
2021-09-21 10:29:01+00:00,291.583,13.42,13.21,47.84626,-54.09684
2021-09-21 10:39:01+00:00,295.3864,13.5,13.21,47.84626,-54.09684
2021-09-21 10:49:01+00:00,304.8063,13.5,13.21,47.84626,-54.09684
2021-09-21 10:59:01+00:00,312.108,13.1,13.21,47.84626,-54.09684
2021-09-21 11:09:01+00:00,315.5547,13.12,13.21,47.84626,-54.09684
2021-09-21 11:19:01+00:00,322.3214,13.29,14.32,47.84626,-54.09684
2021-09-21 11:29:01+00:00,328.3362,13.28,14.32,47.84626,-54.09684
2021-09-21 11:39:01+00:00,327.1047,13.36,14.32,47.84626,-54.09684
2021-09-21 11:49:01+00:00,329.3780000000001,13.42,14.32,47.84626,-54.09684
2021-09-21 11:59:01+00:00,335.5612,13.47,14.32,47.84626,-54.09684
2021-09-21 12:09:01+00:00,335.3780000000001,13.55,14.32,47.84626,-54.09684
2021-09-21 12:19:01+00:00,328.5512,13.6,14.56,47.84626,-54.09684
2021-09-21 12:29:01+00:00,330.3846,13.6,14.56,47.84626,-54.09684
2021-09-21 12:39:01+00:00,333.8179,13.6,14.56,47.84626,-54.09684
2021-09-21 12:49:01+00:00,328.7630000000001,13.61,14.56,47.84626,-54.09684
2021-09-21 12:59:01+00:00,323.9363,13.64,14.56,47.84626,-54.09684
2021-09-21 13:09:01+00:00,323.5046,13.67,14.56,47.84626,-54.09684
2021-09-21 13:19:01+00:00,315.6313,13.7,14.56,47.84626,-54.09684
2021-09-21 13:29:01+00:00,308.1147,13.72,14.56,47.84626,-54.09684
2021-09-21 13:39:01+00:00,308.8931,13.78,14.56,47.84626,-54.09684
2021-09-21 13:49:01+00:00,305.3864,13.8,14.56,47.84626,-54.09684
2021-09-21 13:59:01+00:00,296.4097,13.81,14.56,47.84626,-54.09684
2021-09-21 14:09:01+00:00,292.293,13.88,14.56,47.84626,-54.09684
2021-09-21 14:19:01+00:00,291.5414,13.89,14.48,47.84626,-54.09684
2021-09-21 14:29:01+00:00,282.5881,13.9,14.48,47.84626,-54.09684
2021-09-21 14:39:01+00:00,270.1047,13.9,14.48,47.84626,-54.09684
2021-09-21 14:49:01+00:00,262.033,13.9,14.48,47.84626,-54.09684
2021-09-21 14:59:01+00:00,255.8714,13.9,14.48,47.84626,-54.09684
2021-09-21 15:09:01+00:00,248.7231,13.8,14.48,47.84626,-54.09684
2021-09-21 15:19:01+00:00,241.2364,13.8,14.4,47.84626,-54.09684
2021-09-21 15:29:01+00:00,232.7731,13.78,14.4,47.84626,-54.09684
2021-09-21 15:39:01+00:00,223.9648,13.72,14.4,47.84626,-54.09684
2021-09-21 15:49:01+00:00,217.3131,13.8,14.4,47.84626,-54.09684
2021-09-21 15:59:01+00:00,208.8747,13.8,14.4,47.84626,-54.09684
2021-09-21 16:09:01+00:00,198.1831,13.88,14.4,47.84626,-54.09684
2021-09-21 16:19:01+00:00,190.9748,13.9,14.32,47.84626,-54.09684
2021-09-21 16:29:01+00:00,181.1865,13.7,14.32,47.84626,-54.09684
2021-09-21 16:39:01+00:00,171.4515,13.6,14.32,47.84626,-54.09684
2021-09-21 16:49:01+00:00,170.1631,13.59,14.32,47.84626,-54.09684
2021-09-21 16:59:01+00:00,166.9215,13.62,14.32,47.84626,-54.09684
2021-09-21 17:09:01+00:00,156.5765,13.77,14.32,47.84626,-54.09684
2021-09-21 17:19:01+00:00,149.5365,13.8,14.24,47.84626,-54.09684
2021-09-21 17:29:01+00:00,152.0765,13.82,14.24,47.84626,-54.09684
2021-09-21 17:39:01+00:00,149.0632,13.9,14.24,47.84626,-54.09684
2021-09-21 17:49:01+00:00,140.4382,13.91,14.24,47.84626,-54.09684
2021-09-21 17:59:01+00:00,139.0565,13.96,14.24,47.84626,-54.09684
2021-09-21 18:09:01+00:00,143.3432,13.98,14.24,47.84626,-54.09684
2021-09-21 18:19:01+00:00,143.6315,14.0,14.08,47.84626,-54.09684
2021-09-21 18:29:01+00:00,142.2965,14.0,14.08,47.84626,-54.09684
2021-09-21 18:39:01+00:00,145.6199,14.0,14.08,47.84626,-54.09684
2021-09-21 18:49:01+00:00,153.5832,14.0,14.08,47.84626,-54.09684
2021-09-21 18:59:01+00:00,159.3248,14.0,14.08,47.84626,-54.09684
2021-09-21 19:09:01+00:00,161.6081,14.0,14.08,47.84626,-54.09684
2021-09-21 19:19:01+00:00,167.8665,14.0,13.76,47.84626,-54.09684
2021-09-21 19:29:01+00:00,173.3865,14.0,13.76,47.84626,-54.09684
2021-09-21 19:39:01+00:00,175.5765,14.0,13.76,47.84626,-54.09684
2021-09-21 19:49:01+00:00,181.1131,14.0,13.76,47.84626,-54.09684
2021-09-21 19:59:01+00:00,187.9731,14.0,13.76,47.84626,-54.09684
2021-09-21 20:09:01+00:00,194.2581,14.0,13.76,47.84626,-54.09684
2021-09-21 20:19:01+00:00,198.7431,14.0,13.6,47.84626,-54.09684
2021-09-21 20:29:01+00:00,205.2448,14.0,13.6,47.84626,-54.09684
2021-09-21 20:39:01+00:00,211.0014,14.0,13.6,47.84626,-54.09684
2021-09-21 20:49:01+00:00,215.8698,14.03,13.6,47.84626,-54.09684
2021-09-21 20:59:01+00:00,222.8981,14.04,13.6,47.84626,-54.09684
2021-09-21 21:09:01+00:00,226.6397,14.05,13.6,47.84626,-54.09684
2021-09-21 21:19:01+00:00,229.0314,14.05,13.29,47.84626,-54.09684
2021-09-21 21:29:01+00:00,239.8181,14.06,13.29,47.84626,-54.09684
2021-09-21 21:39:01+00:00,250.2547,14.09,13.29,47.84626,-54.09684
2021-09-21 21:49:01+00:00,252.4198,14.1,13.29,47.84626,-54.09684
2021-09-21 21:59:01+00:00,256.7698,14.1,13.29,47.84626,-54.09684
2021-09-21 22:09:01+00:00,269.3281,14.1,13.29,47.84626,-54.09684
2021-09-21 22:19:01+00:00,281.5781,14.14,12.97,47.84626,-54.09684
2021-09-21 22:29:01+00:00,285.9763,14.19,12.97,47.84626,-54.09684
2021-09-21 22:39:01+00:00,292.6697,14.19,12.97,47.84626,-54.09684
2021-09-21 22:49:01+00:00,306.043,14.19,12.97,47.84626,-54.09684
2021-09-21 22:59:01+00:00,314.9013,14.2,12.97,47.84626,-54.09684
2021-09-21 23:09:01+00:00,318.1414,14.2,12.97,47.84626,-54.09684
2021-09-21 23:19:01+00:00,321.6613,14.2,12.73,47.84626,-54.09684
2021-09-21 23:29:01+00:00,327.8363,14.2,12.73,47.84626,-54.09684
2021-09-21 23:39:01+00:00,330.6497,14.27,12.73,47.84626,-54.09684
2021-09-21 23:49:01+00:00,331.483,14.3,12.73,47.84626,-54.09684
2021-09-21 23:59:01+00:00,336.1513,14.3,12.73,47.84626,-54.09684
